Weather Roundup
Issued by NWS Chicago, IL

Home | Current Version | Previous Version | Text Only | Print | Product List | Glossary On
Versions: 1 2 3 4 5 6 7 8 9 10 11 12 13 14 15 16 17 18 19 20 21 22 23 24 25 26 27 28 29 30 31 32 33 34 35 36 37 38 39 40 41 42 43 44 45 46 47 48 49 50
000
NZUS59 KLOT 210208
HRRLOT

CHICAGO AREA WEATHER ROUNDUP
NATIONAL WEATHER SERVICE CHICAGO/ROMEOVILLE IL
800 PM CST MON FEB 20 2017

NOTE: "FAIR" INDICATES FEW OR NO CLOUDS BELOW 12,000 FEET WITH NO
SIGNIFICANT WEATHER AND/OR OBSTRUCTIONS TO VISIBILITY.

* THESE STATIONS ARE NOT UNDER NWS QUALITY CONTROL. THEY ALSO MAY NOT
  REPORT WEATHER SUCH AS PRECIPITATION OR FOG.

ILZ005-006-012>014-019>023-210300-
NORTHEAST ILLINOIS

CITY           SKY/WX    TMP DP  RH WIND       PRES   REMARKS
OHARE          CLOUDY    62  44  51 S17G26    29.94F
MIDWAY         CLOUDY    62  43  49 S10G23    29.95F
AURORA         CLOUDY    62  48  60 SE15      29.93S
LANSING*       MOCLDY    59  47  65 SE14      29.97F
JOLIET*        CLOUDY    62  50  65 SE7       29.95S
WAUKEGAN       CLOUDY    56  42  59 S14       29.93S
DUPAGE AIRPORT CLOUDY    62  46  55 S17G25    29.93R
WHEELING       MOCLDY    61  43  51 S15       29.95F
KANKAKEE*      CLOUDY    59  47  66 SE9       29.98F
MORRIS*        CLOUDY    62  48  60 S16G24    29.93S
LEWIS AIRPORT* CLOUDY    59  50  71 S12       29.96R
NORTHERLY ISL    N/A     45  38  76 SE6         N/A
$$

WIZ051-052-058>065-066-070>072-210300-
SOUTHEAST WISCONSIN

CITY           SKY/WX    TMP DP  RH WIND       PRES   REMARKS
MILWAUKEE      CLOUDY    59  41  51 S22G28    29.93S
KENOSHA*       CLOUDY    58  43  57 S21       29.93S
RACINE*        CLOUDY    52  39  61 S15G24    29.95S
WAUKESHA       CLOUDY    55  43  62 SE17      29.91F
WEST BEND      CLOUDY    54  43  66 S12       29.89F
$$

INZ001>003-010>013-019-020-210300-
NORTHWEST INDIANA

CITY           SKY/WX    TMP DP  RH WIND       PRES   REMARKS
GARY*          CLOUDY    63  41  45 SE14G25   29.98F
MICHIGAN CITY* NOT AVBL
RENSSELAER*    NOT AVBL
VALPARAISO     CLOUDY    59  43  55 SE10      30.01F
$$

LMZ740>746-210300-
SOUTHERN LAKE MICHIGAN

STATION/POSITION TIME  SKY/WX   TEMP WIND        PRES    VSBY
                                AIR  DIR/SP/G
                 (UTC)          (F)  (DEG/KT/KT) (MB)    (MI)
HARRISON CRIB    0140            54  150/ 26/ 27   N/A
BURNHAM HARBOR   0200            45  150/  3/  6   N/A
CALUMET HARBOR   0148            61  140/ 12/ 20 1013.8F
BURNS HARBOR     0140            61  150/ 11/ 22 1015.6F
MICHIGAN CITY    0140            60  120/ 18/ 22   N/A
$$

ABBREVIATIONS USED IN REMARKS
   TC - TEMPERATURE IN CELSIUS
  WCI - WIND CHILL INDEX
   HX - HEAT INDEX
  VSB - VISIBILITY
$$




USA.gov is the U.S. government's official web portal to all federal, state and local government web resources and services.